DW8248 Weather Reports


time (UTC)temp
C
wind
direction
speed
KPH
gust
KPH
rain 1hr
cm
rain 24hr
cm
rain mn
cm
humidity
%
barometer
mb
20180619030846 26 107 6.4 16.1 0.00 0.00 0.00 72 1016.7
20180619025825 26 115 6.4 14.5 0.00 0.00 0.00 73 1016.7
20180619024832 26 88 4.8 14.5 0.00 0.00 0.00 73 1016.7
20180619023833 26 92 4.8 14.5 0.00 0.00 0.00 72 1016.7
20180619022854 26 90 6.4 14.5 0.00 0.00 0.00 72 1016.6
20180619021819 26 71 4.8 12.9 0.00 0.00 0.00 73 1016.7
20180619020814 26 91 4.8 12.9 0.00 0.00 0.00 73 1016.7
20180619015800 26 115 4.8 12.9 0.00 0.00 0.00 73 1016.7
20180619014816 26 96 3.2 11.3 0.00 0.00 0.00 73 1016.7
20180619013832 26 74 4.8 11.3 0.00 0.00 0.00 74 1016.5
20180619012846 26 101 4.8 11.3 0.00 0.00 0.00 74 1016.6
20180619011908 27 113 3.2 11.3 0.00 0.00 0.00 73 1016.6
20180619010853 27 113 3.2 11.3 0.00 0.00 0.00 73 1016.5
20180619005826 27 94 3.2 11.3 0.00 0.00 0.00 73 1016.6
20180619004751 27 85 3.2 12.9 0.00 0.00 0.00 73 1016.6
20180619003727 27 84 4.8 12.9 0.00 0.00 0.00 71 1016.6
20180619002744 27 107 4.8 12.9 0.00 0.00 0.00 73 1016.6
20180619001719 27 80 4.8 11.3 0.00 0.00 0.00 71 1016.5
20180619000729 27 64 3.2 11.3 0.00 0.00 0.00 70 1016.6
20180618235749 27 92 4.8 11.3 0.00 0.00 0.00 71 1016.7
20180618234731 27 84 4.8 11.3 0.00 0.00 0.00 72 1016.7
20180618233749 27 59 4.8 14.5 0.00 0.00 0.00 72 1016.8
20180618232751 27 86 6.4 14.5 0.00 0.00 0.00 71 1016.7
20180618231739 27 81 4.8 14.5 0.00 0.00 0.00 71 1016.8
20180618230756 28 104 6.4 14.5 0.00 0.00 0.00 71 1016.8
20180618225744 28 114 8.0 16.1 0.00 0.00 0.00 73 1016.7
20180618224737 28 91 8.0 17.7 0.00 0.00 0.00 72 1016.6
20180618223727 28 101 9.7 17.7 0.00 0.00 0.00 73 1016.6
20180618222658 28 82 8.0 17.7 0.00 0.00 0.00 72 1016.6
20180618221627 28 92 9.7 16.1 0.00 0.00 0.00 73 1016.7
20180618220623 28 129 6.4 16.1 0.00 0.00 0.00 74 1016.6
20180618215557 28 100 8.0 16.1 0.00 0.00 0.00 75 1016.7
20180618214541 28 80 8.0 16.1 0.00 0.00 0.00 75 1016.7
20180618213552 28 111 6.4 16.1 0.00 0.00 0.00 75 1016.7
20180618212600 28 90 6.4 19.3 0.00 0.00 0.00 75 1016.8
20180618211602 28 70 8.0 19.3 0.00 0.00 0.00 74 1016.9
20180618210625 28 81 9.7 17.7 0.00 0.00 0.00 75 1016.9
20180618205612 28 128 8.0 17.7 0.00 0.00 0.00 74 1017.0
20180618204541 28 94 9.7 16.1 0.00 0.00 0.00 76 1017.0
20180618203551 28 101 8.0 16.1 0.00 0.00 0.00 76 1017.0
20180618202552 28 74 8.0 17.7 0.00 0.00 0.00 75 1017.0
20180618201531 28 76 8.0 16.1 0.00 0.00 0.00 75 1017.0
20180618200554 28 60 8.0 16.1 0.00 0.00 0.00 75 1017.0
20180618195520 28 116 9.7 19.3 0.00 0.00 0.00 75 1017.1
20180618194451 28 83 9.7 19.3 0.00 0.00 0.00 75 1017.2
20180618193513 28 51 9.7 19.3 0.00 0.00 0.00 75 1017.4
20180618192448 29 87 9.7 19.3 0.00 0.00 0.00 75 1017.5
20180618191504 28 107 9.7 22.5 0.00 0.00 0.00 75 1017.6
20180618190513 28 107 11.3 22.5 0.00 0.00 0.00 76 1017.7
20180618185510 28 86 9.7 20.9 0.00 0.00 0.00 75 1017.8
20180618184505 29 80 11.3 20.9 0.00 0.00 0.00 75 1018.0
20180618183435 29 85 9.7 19.3 0.00 0.00 0.00 75 1018.0
20180618182456 29 96 8.0 19.3 0.00 0.00 0.00 75 1018.1
20180618181513 28 80 11.3 19.3 0.00 0.00 0.00 78 1018.1
20180618180511 29 106 9.7 19.3 0.00 0.00 0.00 78 1018.3
20180618175443 28 106 9.7 19.3 0.00 0.00 0.00 77 1018.5
20180618174458 28 111 9.7 19.3 0.00 0.00 0.00 77 1018.5
20180618173430 29 90 11.3 19.3 0.00 0.00 0.00 77 1018.4
20180618172358 29 123 6.4 16.1 0.00 0.00 0.00 77 1018.4
20180618171324 29 41 8.0 16.1 0.00 0.00 0.00 76 1018.5
20180618170320 29 78 4.8 16.1 0.00 0.00 0.00 78 1018.7
20180618165259 28 44 8.0 16.1 0.00 0.00 0.00 78 1018.7
20180618164250 28 55 6.4 16.1 0.00 0.00 0.00 77 1018.7
20180618163248 28 57 8.0 14.5 0.00 0.00 0.00 76 1018.8
20180618162222 29 47 8.0 14.5 0.00 0.00 0.00 76 1018.9
20180618161208 28 22 8.0 16.1 0.00 0.00 0.00 77 1019.0
20180618160227 28 29 8.0 17.7 0.00 0.00 0.00 79 1019.0
20180618155234 28 38 8.0 17.7 0.00 0.00 0.00 78 1019.0
20180618154249 28 23 11.3 17.7 0.00 0.00 0.00 80 1019.0
20180618153252 28 46 11.3 17.7 0.00 0.00 0.00 80 1018.9
20180618152238 28 58 8.0 17.7 0.00 0.00 0.00 81 1018.8
20180618151239 28 49 8.0 17.7 0.00 0.00 0.00 80 1018.8
20180618150218 28 24 9.7 17.7 0.00 0.00 0.00 79 1018.8
20180618145150 28 17 8.0 12.9 0.00 0.00 0.00 79 1018.9
20180618144142 28 49 8.0 16.1 0.00 0.00 0.00 79 1018.9
20180618143117 28 66 9.7 16.1 0.00 0.00 0.00 79 1018.9
20180618142133 28 43 8.0 16.1 0.00 0.00 0.00 79 1018.8
20180618141149 28 28 8.0 14.5 0.00 0.00 0.00 79 1018.9
20180618140142 28 57 9.7 14.5 0.00 0.00 0.00 79 1019.0
20180618135153 28 65 8.0 12.9 0.00 0.00 0.00 79 1018.9
20180618134204 28 40 6.4 14.5 0.00 0.00 0.00 78 1019.0
20180618133221 28 10 6.4 16.1 0.00 0.00 0.00 79 1019.0
20180618132217 28 55 6.4 16.1 0.00 0.00 0.00 78 1019.1
20180618131203 28 24 8.0 14.5 0.00 0.00 0.00 78 1019.1
20180618130159 28 22 6.4 12.9 0.00 0.00 0.00 78 1018.9
20180618125150 28 50 6.4 12.9 0.00 0.00 0.00 78 1018.7
20180618124140 28 11 6.4 12.9 0.00 0.00 0.00 78 1018.6
20180618123201 28 5 4.8 11.3 0.00 0.00 0.00 79 1018.5
20180618122219 28 0 4.8 11.3 0.00 0.00 0.00 79 1018.6
20180618121153 28 38 4.8 12.9 0.00 0.00 0.00 80 1018.5
20180618120140 28 11 4.8 9.7 0.00 0.00 0.00 81 1018.5
20180618115145 28 70 4.8 9.7 0.00 0.00 0.00 82 1018.4
20180618114154 27 11 3.2 9.7 0.00 0.00 0.00 82 1018.3
20180618113127 27 5 3.2 6.4 0.00 0.00 0.00 84 1018.1
20180618112112 27 38 3.2 6.4 0.00 0.00 0.00 86 1018.1
20180618111106 26 40 1.6 4.8 0.00 0.00 0.00 87 1018.0
20180618110101 26 41 1.6 6.4 0.00 0.00 0.00 87 1018.0
20180618105034 26 51 1.6 6.4 0.00 0.00 0.00 88 1018.0
20180618104027 26 24 1.6 4.8 0.00 0.00 0.00 88 1018.0
20180618103017 26 26 1.6 4.8 0.00 0.00 0.00 88 1017.9
20180618101942 26 21 1.6 6.4 0.00 0.00 0.00 88 1017.8
20180618100924 26 38 1.6 6.4 0.00 0.00 0.00 89 1017.7
20180618095939 26 36 1.6 6.4 0.00 0.00 0.00 89 1017.7
20180618094923 26 36 1.6 4.8 0.00 0.00 0.00 89 1017.6
20180618093917 26 65 0.0 1.6 0.00 0.00 0.00 89 1017.5
20180618092923 26 83 0.0 0.0 0.00 0.00 0.00 89 1017.5
20180618091931 26 88 0.0 0.0 0.00 0.00 0.00 89 1017.4
20180618090856 26 105 0.0 0.0 0.00 0.00 0.00 89 1017.4
20180618085826 26 105 0.0 0.0 0.00 0.00 0.00 88 1017.1
20180618084830 26 105 0.0 0.0 0.00 0.00 0.00 88 1017.1
20180618083845 26 105 0.0 0.0 0.00 0.00 0.00 88 1017.0
20180618082837 26 105 0.0 0.0 0.00 0.00 0.00 88 1017.0
20180618081819 26 105 0.0 0.0 0.00 0.00 0.00 88 1017.0
20180618080800 26 105 0.0 0.0 0.00 0.00 0.00 87 1016.8
20180618075743 26 105 0.0 0.0 0.00 0.00 0.00 87 1016.9
20180618074752 26 105 0.0 0.0 0.00 0.00 0.00 87 1016.8
20180618073805 26 105 0.0 0.0 0.00 0.00 0.00 87 1016.8
20180618072753 26 105 0.0 0.0 0.00 0.00 0.00 87 1016.8
20180618071737 26 105 0.0 0.0 0.00 0.00 0.00 87 1016.8
20180618070725 26 105 0.0 0.0 0.00 0.00 0.00 87 1017.0
20180618065728 26 105 0.0 0.0 0.00 0.00 0.00 87 1017.0
20180618064634 26 105 0.0 0.0 0.00 0.00 0.00 86 1017.2
20180618063647 26 105 0.0 0.0 0.00 0.00 0.00 86 1017.4
20180618062610 26 105 0.0 0.0 0.00 0.00 0.00 86 1017.6
20180618061627 26 105 0.0 0.0 0.00 0.00 0.00 86 1017.6
20180618060621 26 105 0.0 0.0 0.00 0.00 0.00 86 1017.6
20180618055639 26 105 0.0 0.0 0.00 0.00 0.00 86 1017.7
20180618054640 27 105 0.0 0.0 0.00 0.00 0.00 86 1017.8
20180618053611 26 95 0.0 4.8 0.00 0.00 0.00 86 1017.8
20180618052607 26 80 1.6 4.8 0.00 0.00 0.00 86 1017.9
20180618051604 26 81 1.6 6.4 0.00 0.00 0.00 85 1017.9
20180618050611 26 80 0.0 6.4 0.00 0.00 0.00 85 1017.9
20180618045610 27 92 0.0 4.8 0.00 0.00 0.00 85 1018.0
20180618044544 27 107 1.6 6.4 0.00 0.00 0.00 85 1018.1
20180618043519 27 103 1.6 6.4 0.00 0.00 0.00 85 1018.2
20180618042541 27 92 0.0 4.8 0.00 0.00 0.00 84 1018.4
20180618041533 27 103 1.6 3.2 0.00 0.00 0.00 84 1018.3
20180618040519 27 107 0.0 3.2 0.00 0.00 0.00 84 1018.4
20180618035528 27 96 0.0 4.8 0.00 0.00 0.00 84 1018.4
20180618034503 27 87 1.6 4.8 0.00 0.00 0.00 84 1018.5
20180618033510 27 90 0.0 0.0 0.00 0.00 0.00 84 1018.5
20180618032438 27 91 1.6 4.8 0.00 0.00 0.00 83 1018.4
20180618031428 27 110 0.0 3.2 0.00 0.00 0.00 84 1018.4